Montoursville, PA

9:40 AM EST on December 04, 2016 (GMT -0500)
Williamsport Rgnl

Weather History for KIPT - April, 2012

Change the Weather History Date:

Thursday, April 26, 2012

  Actual Average Record
Temperature  
Mean Temperature 49 °F 54 °F  
Max Temperature 63 °F 65 °F 92 °F (1990)
Min Temperature 34 °F 42 °F 26 °F (1934)
Degree Days  
Heating Degree Days 16 12  
Month to date heating degree days 367 415  
Since 1 July heating degree days 4618 5711  
Cooling Degree Days 0 0  
Month to date cooling degree days 5 0  
Year to date cooling degree days 5 0  
Moisture  
Dew Point 42 °F    
Average Humidity 67    
Maximum Humidity 82    
Minimum Humidity 51    
Precipitation  
Precipitation 0.04 in 0.11 in 1.15 in (1993)
Month to date precipitation 1.85 2.81  
Year to date precipitation 7.80 10.82  
Snow  
Snow 0.00 in 0.00 in T in (1993)
Month to date snowfall 0.0 1.1  
Since 1 July snowfall 12.3 36.0  
Snow Depth 0.00 in    
Sea Level Pressure  
Sea Level Pressure 29.71 in    
Wind  
Wind Speed 6 mph (ENE)    
Max Wind Speed 18 mph    
Max Gust Speed 25 mph    
Visibility 8 miles    
Events Rain    
T = Trace of Precipitation, MM = Missing Value Source: NWS Daily Summary

Daily Weather History Graph

Daily Weather History Graph

Search for Another Location

Airport or City:

Trip Planner

Search our weather history database for the weather conditions in past years. The results will help you decide how hot, cold, wet, or windy it might be!

Date:

Astronomy

Apr. 26, 2012 Rise Set
Actual Time 6:11 AM EDT 8:00 PM EDT
Civil Twilight 5:41 AM EDT 8:29 PM EDT
Nautical Twilight 5:05 AM EDT 9:05 PM EDT
Astronomical Twilight 4:27 AM EDT 9:44 PM EDT
Moon 9:47 AM EDT (4/26) 12:05 AM EDT (4/26)
Length of Visible Light 14h 48m
Length of Day
13h 48m
Waxing Crescent, 24% of the Moon is Illuminated
Apr 26
Waxing Crescent
Apr 29
First Quarter
May 5
Full
May 12
Last Quarter
May 20
New

Hourly Weather History & Observations

Time (EDT) Temp. Windchill Dew Point Humidity Pressure Visibility Wind Dir Wind Speed Gust Speed Precip Events Conditions
12:54 AM 39.9 °F - 32.0 °F 73% 29.89 in 10.0 mi Calm Calm - N/A   Clear
1:54 AM 37.0 °F - 30.0 °F 76% 29.88 in 10.0 mi Calm Calm - N/A   Clear
2:54 AM 35.1 °F - 30.0 °F 82% 29.87 in 10.0 mi Calm Calm - N/A   Clear
3:54 AM 36.0 °F 33.3 °F 28.9 °F 76% 29.86 in 10.0 mi North 3.5 mph - N/A   Clear
4:54 AM 35.1 °F - 28.9 °F 78% 29.86 in 10.0 mi Calm Calm - N/A   Clear
5:54 AM 36.0 °F - 30.9 °F 82% 29.84 in 10.0 mi Calm Calm - N/A   Overcast
6:54 AM 37.0 °F - 32.0 °F 82% 29.83 in 10.0 mi Calm Calm - N/A   Overcast
7:54 AM 39.9 °F - 34.0 °F 79% 29.81 in 10.0 mi Calm Calm - N/A   Overcast
8:54 AM 46.9 °F - 32.0 °F 56% 29.79 in 10.0 mi ENE 6.9 mph - N/A   Overcast
9:54 AM 48.9 °F - 33.1 °F 54% 29.77 in 10.0 mi ENE 10.4 mph - 0.00 in Rain Light Rain
10:54 AM 53.1 °F - 36.0 °F 52% 29.73 in 10.0 mi ENE 9.2 mph - 0.00 in   Mostly Cloudy
11:54 AM 57.9 °F - 39.0 °F 49% 29.71 in 10.0 mi SE 5.8 mph 24.2 mph N/A   Partly Cloudy
12:54 PM 59.0 °F - 41.0 °F 51% 29.68 in 10.0 mi East 11.5 mph 16.1 mph N/A   Mostly Cloudy
1:54 PM 60.1 °F - 44.1 °F 55% 29.64 in 10.0 mi South 8.1 mph - N/A   Overcast
2:54 PM 61.0 °F - 46.0 °F 58% 29.63 in 10.0 mi SSE 5.8 mph 20.7 mph N/A   Mostly Cloudy
3:54 PM 61.0 °F - 48.0 °F 62% 29.60 in 9.0 mi SE 10.4 mph 17.3 mph N/A   Partly Cloudy
4:54 PM 61.0 °F - 48.0 °F 62% 29.60 in 7.0 mi ESE 10.4 mph - N/A   Mostly Cloudy
5:54 PM 62.1 °F - 48.9 °F 62% 29.58 in 6.0 mi ENE 4.6 mph - 0.00 in Rain Light Rain
6:54 PM 59.0 °F - 51.1 °F 75% 29.57 in 6.0 mi South 8.1 mph - 0.01 in Rain Light Rain
7:52 PM 57.2 °F - 51.8 °F 82% 29.58 in 2.5 mi East 4.6 mph - 0.03 in Rain Light Rain
7:54 PM 57.0 °F - 52.0 °F 83% 29.58 in 3.0 mi East 4.6 mph - 0.03 in Rain Light Rain
8:54 PM 55.9 °F - 54.0 °F 93% 29.60 in 3.0 mi Calm Calm - 0.00 in   Overcast
8:56 PM 55.4 °F - 53.6 °F 94% 29.60 in 2.5 mi Calm Calm - N/A   Overcast
9:04 PM 55.4 °F - 53.6 °F 94% 29.62 in 2.5 mi Variable 4.6 mph - N/A   Overcast
9:13 PM 57.2 °F - 53.6 °F 88% 29.63 in 4.0 mi NNW 6.9 mph - 0.00 in Rain Light Rain
9:54 PM 54.0 °F - 46.0 °F 75% 29.68 in 10.0 mi NW 8.1 mph - 0.00 in   Overcast
10:17 PM 53.6 °F - 46.4 °F 77% 29.69 in 10.0 mi NW 9.2 mph 17.3 mph N/A   Overcast
10:46 PM 53.6 °F - 46.4 °F 77% 29.70 in 10.0 mi NNW 5.8 mph - N/A   Overcast
10:54 PM 53.1 °F - 44.1 °F 71% 29.70 in 10.0 mi NW 11.5 mph 19.6 mph N/A   Overcast
11:22 PM 51.8 °F - 42.8 °F 71% 29.72 in 10.0 mi NW 9.2 mph 18.4 mph N/A   Overcast
11:54 PM 50.0 °F - 39.9 °F 68% 29.74 in 10.0 mi NW 11.5 mph 21.9 mph N/A   Overcast